Location: L�Isle
(46.6191°N, 6.4115°E)
Time: 07:08:52
(UTC+00:00)

Daily predictions for brighter satellites

Satellite Brightness Start Highest point End
(mag) Time Altitude Azimuth Time Altitude Azimuth Time Altitude Azimuth
CZ-2C R/B 4.4 16:49:27 10° ESE 16:53:40 21° ENE 16:57:47 10° NNE
SMAP 3.1 16:49:19 10° SSE 16:53:57 81° ENE 16:58:38 10° NNW
Meteor 2-14 Rocket 4.5 16:48:08 10° N 16:54:16 65° ENE 17:00:20 10° SSE
Cosmos 2219 3.7 16:49:30 10° NNW 16:54:53 39° NE 17:00:15 10° ESE
Cosmos 1943 Rocket 4.4 16:52:54 10° W 16:56:43 19° NW 17:00:32 10° N
Cosmos 1726 Rocket 4.1 16:52:46 10° SSE 16:56:47 38° E 17:00:50 10° NNE
Cosmos 1758 Rocket 3.6 16:55:17 10° N 16:59:43 86° E 17:04:05 10° S
USA 307 3.9 16:56:38 10° NW 17:00:34 34° NNE 17:04:29 10° ENE
Meteor 2-21 4.4 16:54:47 10° N 17:00:59 77° E 17:07:04 10° SSE
Cosmos 1328 4.0 16:57:18 10° NNW 17:01:16 77° W 17:05:12 10° S
FALCON 9 DEB 3.5 17:00:29 10° SW 17:03:36 45° SE 17:06:43 10° ENE
Cosmos 2228 3.0 16:59:36 10° S 17:03:47 60° E 17:08:01 10° NNE
YAOGAN 6 3.4 17:00:39 10° S 17:04:15 58° W 17:07:54 10° NNW
Cosmos 1939 Rocket 3.5 17:01:25 10° SE 17:04:58 33° ENE 17:08:31 10° N
USA 308 3.8 17:01:29 10° NW 17:05:26 34° NNE 17:09:20 10° E
CZ-4B R/B 1.4 17:02:48 10° NNE 17:05:59 53° E 17:09:02 10° S
ATLAS 5 CENTAUR R/B 3.8 17:04:20 10° WNW 17:07:21 18° NNW 17:10:40 10° NNE
Helios 1A Rocket 3.8 17:08:39 10° SE 17:12:13 29° ENE 17:15:47 10° N
Cosmos 1606 Rocket 3.5 17:07:59 10° S 17:12:19 70° E 17:16:43 10° NNE
GENESIS II 4.3 17:11:03 10° SW 17:15:05 85° NW 17:19:09 10° NE
FALCON 9 DEB 3.1 17:12:03 10° SW 17:15:13 60° SE 17:17:56 13° ENE
CZ-4B R/B 3.9 17:10:31 10° S 17:16:04 61° WSW 17:21:33 10° NNW
Okean-O 3.3 17:14:45 10° SE 17:18:40 32° ENE 17:22:37 10° N
SKYMED 2 4.0 17:16:01 10° NNE 17:20:08 40° E 17:24:14 10° SSE
Cosmos 1656 4.2 17:16:09 10° S 17:21:12 37° ESE 17:26:21 10° NE
Cosmos 1689 Rocket 2.8 17:18:45 10° NNE 17:21:21 30° E 17:23:56 10° SSE
Cosmos 1400 Rocket 3.2 17:20:09 10° SSE 17:24:04 44° E 17:27:58 10° NNE
H-2A R/B 3.1 17:22:11 10° ESE 17:26:37 27° ENE 17:31:05 10° N
PSLV R/B 4.4 17:24:28 10° NNE 17:28:26 39° E 17:32:19 10° SSE
GEOS 3 Rocket 4.4 17:24:33 12° E 17:28:52 35° NE 17:33:43 10° NNW
Cosmos 2227 Rocket 2.3 17:23:25 10° NNW 17:28:57 52° ENE 17:34:28 10° SE
CZ-4 R/B 1.9 17:25:28 10° SE 17:28:57 33° ENE 17:32:26 10° N
Cosmos 2058 3.8 17:26:15 10° NNE 17:29:44 26° ENE 17:33:11 10° SE
Meteor 2-16 Rocket 4.4 17:23:54 10° N 17:30:01 83° E 17:36:07 10° S
Cosmos 1892 3.3 17:27:33 10° N 17:31:09 35° ENE 17:34:43 10° SE
Cosmos 2263 Rocket 3.9 17:30:49 10° N 17:33:54 15° NE 17:35:34 13° NE
CSL-04 Rocket 4.4 17:30:05 10° ESE 17:34:53 31° ENE 17:39:41 10° N
BREEZE-M R/B 4.0 17:25:40 10° W 17:35:12 64° N 17:37:09 21° ENE
Cosmos 1408 3.6 17:32:13 10° NNE 17:35:18 25° ENE 17:37:15 16° ESE
Cosmos 1244 Rocket 4.4 17:31:23 10° N 17:37:37 79° E 17:43:52 10° SSE
CZ-4C R/B 4.2 17:35:22 10° NNW 17:40:12 21° NNE 17:44:25 13° NE
Cosmos 1953 Rocket 4.0 17:37:38 10° NNW 17:42:03 68° W 17:46:26 10° S
Cosmos 1300 3.1 17:38:39 10° SSW 17:42:25 65° W 17:46:15 10° N
Cosmos 2058 Rocket 3.0 17:41:13 10° S 17:45:42 79° E 17:50:13 10° NNE
Cosmos 1697 Rocket 3.3 17:40:55 10° SSE 17:45:49 32° ESE 17:49:37 15° NE
SL-4 R/B 2.6 17:44:06 10° WNW 17:47:27 37° N 17:49:04 25° NE
IRS-1C Rocket 4.1 17:42:24 10° SSE 17:47:40 88° WSW 17:52:59 10° NNW
CZ-2D R/B 3.1 17:44:03 10° SSE 17:47:51 72° ENE 17:51:39 10° N
SeaSat 1 3.4 17:46:27 22° E 17:48:18 28° NE 17:52:28 10° N
Cosmos 1346 Rocket 3.1 17:46:15 10° N 17:50:05 42° ENE 17:53:53 10° SSE
NOSS 3-3 (A) 4.4 17:45:13 10° S 17:50:27 37° ESE 17:54:18 19° ENE
NOSS 3-3 (C) 4.4 17:45:18 10° S 17:50:34 37° ESE 17:54:24 19° ENE
USA 305 3.3 17:47:22 10° NW 17:51:34 49° NNE 17:53:27 28° E
Cosmos 1825 3.3 17:49:04 10° NNE 17:51:37 25° NE 17:51:37 25° NE
IRS-P2 Rocket 4.5 17:48:06 10° SSE 17:53:18 75° ENE 17:58:37 10° NNW
Cosmos 44 3.7 17:49:47 10° SW 17:54:15 59° NW 17:59:02 10° NNE
Cosmos 1315 Rocket 3.4 17:51:41 10° SSE 17:55:16 33° E 17:56:19 28° ENE
USA 215 4.0 17:51:39 19° ENE 17:55:45 39° NNE 18:01:42 10° NW
USA 306 3.2 17:53:47 10° NW 17:57:59 52° NNE 17:59:35 33° E
SAR-Lupe-4 4.4 17:55:55 10° N 17:59:25 52° WNW 18:02:54 10° SSW
ERS-2 4.1 17:56:13 10° N 17:59:25 29° WNW 18:02:36 10° SW
BREEZE-M R/B 3.7 17:57:32 10° WNW 18:01:25 66° NNE 18:05:18 26° E
ATLAS 2AS CENTAUR R/B 3.7 17:55:21 10° NW 18:02:08 33° NNE 18:05:17 24° ENE
Cosmos 968 Rocket 3.4 17:59:11 10° NNW 18:04:26 81° ENE 18:09:36 10° SSE
Cosmos 1340 3.2 18:01:15 10° NNW 18:04:58 61° W 18:08:42 10° S
COSMO-SKYMED 1 3.0 18:03:56 10° N 18:08:15 64° WNW 18:12:32 10° SSW
Cosmos 1980 Rocket 3.3 18:03:58 10° SSE 18:07:19 24° ESE 18:07:19 24° ESE
Cosmos 2297 Rocket 2.5 18:03:14 10° NNW 18:08:52 69° WSW 18:14:28 10° SSE
MOS 1 Rocket 3.6 18:04:32 10° NNE 18:09:02 46° E 18:13:48 10° S
Cosmos 1076 Rocket 3.6 18:05:58 10° N 18:10:08 50° ENE 18:11:35 34° SE
In-Cosmos 22 Rocket 4.4 18:05:50 10° NNW 18:11:11 71° W 18:16:37 10° S
Aureole 3 Rocket 3.7 18:07:26 10° SSW 18:11:21 62° WNW 18:16:49 10° N
Cosmos 2315 Rocket 4.4 18:09:12 10° SSE 18:14:48 37° E 18:20:24 10° NNE
CSL-04 Debris 4.1 18:09:47 10° SSE 18:15:09 67° ENE 18:20:36 10° N
S3M 3.8 18:09:08 10° S 18:15:11 71° E 18:21:21 10° NNE
SL-08 ROCKET BODY 4.5 18:14:45 10° N 18:20:53 83° W 18:27:03 10° S
Lacrosse 5 3.3 18:17:51 10° NW 18:22:05 26° N 18:23:30 23° NNE
FALCON 9 DEB 4.2 18:19:16 10° NW 18:22:07 34° N 18:22:07 34° N
YAOGAN 1 2.7 18:18:35 10° S 18:22:54 76° WSW 18:27:15 10° NNW
FALCON 9 DEB 3.7 18:20:19 10° W 18:23:26 45° NNW 18:23:30 45° NNW
Cosmos 2360 4.3 18:19:04 10° S 18:24:34 50° ESE 18:26:15 38° ENE
Cosmos 1486 Rocket 4.4 18:19:35 10° NNW 18:24:54 67° WSW 18:30:09 10° S
FALCON 9 DEB 3.9 18:24:36 10° W 18:27:30 41° NNW 18:27:30 41° NNW
Cosmos 1812 Rocket 3.4 18:25:44 10° S 18:30:06 67° E 18:30:37 60° NE
Cosmos 1455 2.0 18:27:08 10° S 18:30:53 89° WSW 18:31:13 74° N
CZ-2C R/B 3.5 18:27:12 10° S 18:32:59 72° WSW 18:38:39 10° NNW
Cosmos 1503 Rocket 3.9 18:29:30 10° NNW 18:34:46 88° ENE 18:37:12 33° SSE
Cosmos 44 Rocket 4.1 18:32:26 10° S 18:35:27 34° SSE 18:35:27 34° SSE
Cosmos 2278 4.1 18:32:26 10° S 18:36:45 41° SE 18:36:45 41° SE
DMSP B5D1-3 4.4 18:34:21 10° NNE 18:39:31 90° ENE 18:44:41 10° SSW
FALCON 9 DEB 4.5 18:36:42 10° W 18:39:10 34° NW 18:39:10 34° NW
USA 307 2.8 18:36:44 10° WNW 18:40:52 81° NNW 18:40:52 81° NNW
Meteor 2-10 Rocket 3.9 18:39:04 10° SSW 18:44:21 65° WNW 18:49:27 10° N
USA 308 3.0 18:41:34 10° WNW 18:45:31 75° WNW 18:45:31 75° WNW
Cosmos 1354 Rocket 3.9 18:41:03 10° NNW 18:46:20 85° WSW 18:47:53 47° SSE
Cosmos 2082 3.8 18:42:14 10° NNW 18:47:58 73° WSW 18:50:45 31° S
ATLAS 5 CENTAUR R/B 4.3 18:52:13 10° NNW 18:54:06 12° N 18:55:01 11° NNE
Cosmos 1992 Rocket 4.3 18:51:19 10° SSW 18:56:29 64° WNW 18:59:48 22° N
ARGOS 3.2 18:54:41 38° S 18:56:51 81° WSW 19:02:19 10° NNW
Cosmos 2369 3.7 18:55:43 10° SSW 19:01:26 81° WNW 19:03:11 47° NNE
CZ-4 R/B 3.8 19:01:03 10° SW 19:04:03 21° W 19:07:04 10° NW
H-2A R/B 2.9 19:00:27 10° S 19:05:42 52° W 19:11:03 10° NNW
Ariane Rocket 4.0 19:07:51 35° N 19:07:51 35° N 19:10:51 10° N
GEOS 3 Rocket 4.0 19:05:41 52° S 19:06:39 61° SW 19:12:00 10° NW
Geosat 4.5 19:06:43 40° N 19:08:18 59° WNW 19:13:13 10° SW
Cosmos 2227 Rocket 4.1 19:08:02 10° NW 19:12:41 27° WSW 19:17:20 10° SSW
Cosmos 2263 Rocket 3.0 19:13:25 10° NNW 19:17:16 41° N 19:17:16 41° N
Atlas Centaur 2 4.3 19:13:08 10° SW 19:19:40 25° S 19:20:08 25° S
SeaSat 1 3.2 19:26:15 50° W 19:26:15 50° W 19:30:26 10° NW
SL-4 R/B 4.5 19:23:38 10° WNW 19:24:38 18° WNW 19:24:38 18° WNW
Cosmos 1697 Rocket 3.6 19:24:15 10° SW 19:29:37 44° NW 19:31:25 34° NNW
CZ-4C R/B 3.4 19:23:51 10° NNW 19:29:36 44° NNE 19:29:36 44° NNE
NOSS 3-4 (A) 3.7 19:24:50 10° NW 19:31:39 84° N 19:31:39 84° N
NOSS 3-4 (C) 3.7 19:24:56 10° NW 19:31:43 83° N 19:31:43 83° N
DEBRIS 4.2 19:23:10 10° WSW 19:36:49 75° WNW 19:36:49 75° WNW
USA 215 3.4 19:39:00 64° NNW 19:39:00 64° NNW 19:44:44 10° NW
Cosmos 1980 Rocket 3.9 19:46:43 10° SW 19:49:11 26° SW 19:49:11 26° SW
ATLAS 2AS CENTAUR R/B 3.1 19:46:31 10° NW 19:52:43 63° NW 19:52:43 63° NW
Lacrosse 5 4.2 20:01:09 10° NW 20:02:41 19° NW 20:02:41 19° NW
